Tiempo cada hora A dos Cunhados

Hoy, 24 Octubre, Sábado

Tiempo Temperatura Precipitaciones Viento Presión Humedad
00:00 +13°C° 0 mm 1 mps 761 mmHg 83%
01:00 +13°C° 0 mm 1 mps 760 mmHg 84%
02:00 +13°C° 0 mm 1 mps 760 mmHg 85%
03:00 +12°C° 0 mm 1 mps 760 mmHg 86%
04:00 +12°C° 0 mm 1 mps 760 mmHg 87%
05:00 +12°C° 0 mm 1 mps 760 mmHg 87%
06:00 +13°C° 0 mm 2 mps 760 mmHg 83%
07:00 +14°C° 0 mm 2 mps 760 mmHg 79%
08:00 +16°C° 0 mm 3 mps 760 mmHg 74%
09:00 +15°C° 0 mm 4 mps 760 mmHg 71%
10:00 +17°C° 0 mm 4 mps 760 mmHg 67%
11:00 +17°C° 0 mm 5 mps 760 mmHg 63%
12:00 +19°C° 0 mm 5 mps 759 mmHg 63%
13:00 +19°C° 0 mm 6 mps 759 mmHg 63%
14:00 +19°C° 0 mm 6 mps 759 mmHg 63%
15:00 +17°C° 0 mm 6 mps 758 mmHg 68%
16:00 +16°C° 0 mm 6 mps 758 mmHg 73%
17:00 +15°C° 0 mm 5 mps 758 mmHg 78%
18:00 +15°C° 0 mm 6 mps 758 mmHg 80%
19:00 +15°C° 0 mm 6 mps 758 mmHg 83%
20:00 +15°C° 0 mm 6 mps 758 mmHg 85%
21:00 +15°C° 0.1 mm 6 mps 757 mmHg 84%
22:00 +16°C° 0.1 mm 7 mps 757 mmHg 83%
23:00 +16°C° 0.1 mm 7 mps 757 mmHg 83%

Mañana, 25 Octubre, Domingo

Tiempo Temperatura Precipitaciones Viento Presión Humedad
00:00 +16°C° 0.1 mm 7 mps 756 mmHg 82%
01:00 +16°C° 0.1 mm 7 mps 755 mmHg 82%
02:00 +17°C° 0.1 mm 8 mps 755 mmHg 81%
03:00 +17°C° 0.1 mm 8 mps 755 mmHg 83%
04:00 +17°C° 0.1 mm 8 mps 754 mmHg 84%
05:00 +17°C° 0.1 mm 8 mps 754 mmHg 86%
06:00 +17°C° 1.2 mm 7 mps 754 mmHg 88%
07:00 +16°C° 1.2 mm 7 mps 754 mmHg 89%
08:00 +16°C° 1.2 mm 6 mps 754 mmHg 91%
09:00 +16°C° 0.4 mm 5 mps 754 mmHg 86%
10:00 +17°C° 0.4 mm 5 mps 754 mmHg 80%
11:00 +18°C° 0.4 mm 4 mps 754 mmHg 74%
12:00 +17°C° 0.1 mm 5 mps 754 mmHg 72%
13:00 +19°C° 0.1 mm 6 mps 754 mmHg 69%
14:00 +18°C° 0.1 mm 7 mps 754 mmHg 66%
15:00 +17°C° 0.1 mm 6 mps 754 mmHg 69%
16:00 +16°C° 0.1 mm 6 mps 754 mmHg 73%
17:00 +15°C° 0.1 mm 6 mps 754 mmHg 76%
18:00 +15°C° 0.1 mm 6 mps 754 mmHg 75%
19:00 +14°C° 0.1 mm 6 mps 755 mmHg 74%
20:00 +14°C° 0.1 mm 6 mps 755 mmHg 74%
21:00 +14°C° 0.1 mm 6 mps 755 mmHg 74%
22:00 +13°C° 0.1 mm 6 mps 756 mmHg 75%
23:00 +13°C° 0.1 mm 6 mps 756 mmHg 75%

Pasado mañana, 26 Octubre, Lunes

Tiempo Temperatura Precipitaciones Viento Presión Humedad
00:00 +11°C° 0 mm 6 mps 756 mmHg 76%
01:00 +12°C° 0 mm 5 mps 756 mmHg 78%
02:00 +12°C° 0 mm 5 mps 756 mmHg 79%
03:00 +10°C° 0.1 mm 5 mps 756 mmHg 80%
04:00 +10°C° 0.1 mm 5 mps 756 mmHg 82%
05:00 +11°C° 0.1 mm 4 mps 757 mmHg 83%
06:00 +12°C° 0 mm 4 mps 757 mmHg 77%
07:00 +13°C° 0 mm 4 mps 757 mmHg 72%
08:00 +14°C° 0 mm 3 mps 758 mmHg 67%
09:00 +16°C° 0.1 mm 3 mps 758 mmHg 63%
10:00 +16°C° 0.1 mm 3 mps 758 mmHg 60%
11:00 +17°C° 0.1 mm 3 mps 758 mmHg 57%
12:00 +17°C° 0 mm 3 mps 758 mmHg 56%
13:00 +17°C° 0 mm 3 mps 758 mmHg 56%
14:00 +17°C° 0 mm 4 mps 758 mmHg 55%
15:00 +16°C° 0 mm 3 mps 758 mmHg 60%
16:00 +14°C° 0 mm 3 mps 758 mmHg 65%
17:00 +13°C° 0 mm 2 mps 758 mmHg 70%
18:00 +13°C° 0 mm 2 mps 758 mmHg 72%
19:00 +13°C° 0 mm 2 mps 758 mmHg 73%
20:00 +12°C° 0 mm 2 mps 758 mmHg 75%
21:00 +12°C° 0 mm 2 mps 758 mmHg 76%
22:00 +12°C° 0 mm 2 mps 758 mmHg 77%
23:00 +12°C° 0 mm 1 mps 758 mmHg 78%

, 27 Octubre, Martes

Tiempo Temperatura Precipitaciones Viento Presión Humedad
00:00 +12°C° 0 mm 2 mps 758 mmHg 79%
01:00 +12°C° 0 mm 2 mps 757 mmHg 80%
02:00 +12°C° 0 mm 2 mps 757 mmHg 81%
03:00 +12°C° 0 mm 2 mps 757 mmHg 80%
04:00 +12°C° 0 mm 3 mps 757 mmHg 78%
05:00 +12°C° 0 mm 3 mps 757 mmHg 76%
06:00 +13°C° 0 mm 3 mps 757 mmHg 74%
07:00 +14°C° 0 mm 3 mps 757 mmHg 71%
08:00 +15°C° 0 mm 4 mps 757 mmHg 68%
09:00 +17°C° 0 mm 4 mps 757 mmHg 65%
10:00 +17°C° 0 mm 5 mps 757 mmHg 63%
11:00 +19°C° 0 mm 5 mps 757 mmHg 60%
12:00 +19°C° 0 mm 5 mps 757 mmHg 62%
13:00 +19°C° 0 mm 5 mps 756 mmHg 64%
14:00 +19°C° 0 mm 5 mps 756 mmHg 66%
15:00 +17°C° 0 mm 5 mps 756 mmHg 71%
16:00 +17°C° 0 mm 4 mps 756 mmHg 76%
17:00 +15°C° 0 mm 4 mps 755 mmHg 81%
18:00 +15°C° 0 mm 4 mps 756 mmHg 82%
19:00 +15°C° 0 mm 5 mps 756 mmHg 84%
20:00 +15°C° 0 mm 5 mps 756 mmHg 85%
21:00 +15°C° 0.1 mm 5 mps 756 mmHg 86%
22:00 +15°C° 0.1 mm 5 mps 756 mmHg 88%
23:00 +15°C° 0.1 mm 5 mps 756 mmHg 89%

27 Octubre, Martes

Tiempo Temperatura Precipitaciones Viento Presión Humedad
00:00 +12°C° 0 mm 2 mps 758 mmHg 79%
01:00 +12°C° 0 mm 2 mps 757 mmHg 80%
02:00 +12°C° 0 mm 2 mps 757 mmHg 81%
03:00 +12°C° 0 mm 2 mps 757 mmHg 80%
04:00 +12°C° 0 mm 3 mps 757 mmHg 78%
05:00 +12°C° 0 mm 3 mps 757 mmHg 76%
06:00 +13°C° 0 mm 3 mps 757 mmHg 74%
07:00 +14°C° 0 mm 3 mps 757 mmHg 71%
08:00 +15°C° 0 mm 4 mps 757 mmHg 68%
09:00 +17°C° 0 mm 4 mps 757 mmHg 65%
10:00 +17°C° 0 mm 5 mps 757 mmHg 63%
11:00 +19°C° 0 mm 5 mps 757 mmHg 60%
12:00 +19°C° 0 mm 5 mps 757 mmHg 62%
13:00 +19°C° 0 mm 5 mps 756 mmHg 64%
14:00 +19°C° 0 mm 5 mps 756 mmHg 66%
15:00 +17°C° 0 mm 5 mps 756 mmHg 71%
16:00 +17°C° 0 mm 4 mps 756 mmHg 76%
17:00 +15°C° 0 mm 4 mps 755 mmHg 81%
18:00 +15°C° 0 mm 4 mps 756 mmHg 82%
19:00 +15°C° 0 mm 5 mps 756 mmHg 84%
20:00 +15°C° 0 mm 5 mps 756 mmHg 85%
21:00 +15°C° 0.1 mm 5 mps 756 mmHg 86%
22:00 +15°C° 0.1 mm 5 mps 756 mmHg 88%
23:00 +15°C° 0.1 mm 5 mps 756 mmHg 89%

28 Octubre, Miércoles

Tiempo Temperatura Precipitaciones Viento Presión Humedad
00:00 +16°C° 0.3 mm 5 mps 755 mmHg 90%
01:00 +16°C° 0.3 mm 5 mps 755 mmHg 91%
02:00 +17°C° 0.3 mm 4 mps 755 mmHg 92%
03:00 +17°C° 0.5 mm 4 mps 755 mmHg 93%
04:00 +17°C° 0.5 mm 3 mps 755 mmHg 94%
05:00 +17°C° 0.5 mm 3 mps 755 mmHg 95%
06:00 +17°C° 0.1 mm 3 mps 756 mmHg 92%
07:00 +18°C° 0.1 mm 3 mps 756 mmHg 89%
08:00 +18°C° 0.1 mm 3 mps 756 mmHg 86%
09:00 +19°C° 0 mm 3 mps 756 mmHg 78%
10:00 +20°C° 0 mm 3 mps 757 mmHg 70%
11:00 +21°C° 0 mm 2 mps 757 mmHg 63%
12:00 +20°C° 0 mm 2 mps 757 mmHg 63%
13:00 +20°C° 0 mm 3 mps 757 mmHg 63%
14:00 +20°C° 0 mm 3 mps 757 mmHg 63%
15:00 +18°C° 0 mm 3 mps 757 mmHg 69%
16:00 +17°C° 0 mm 3 mps 757 mmHg 74%
17:00 +14°C° 0 mm 3 mps 757 mmHg 79%
18:00 +15°C° 0 mm 2 mps 757 mmHg 80%
19:00 +14°C° 0 mm 2 mps 757 mmHg 81%
20:00 +14°C° 0 mm 2 mps 758 mmHg 82%
21:00 +13°C° 0 mm 2 mps 758 mmHg 82%
22:00 +13°C° 0 mm 2 mps 757 mmHg 82%
23:00 +13°C° 0 mm 1 mps 757 mmHg 81%

29 Octubre, Jueves

Tiempo Temperatura Precipitaciones Viento Presión Humedad
00:00 +13°C° 0 mm 1 mps 757 mmHg 82%
01:00 +12°C° 0 mm 1 mps 757 mmHg 83%
02:00 +12°C° 0 mm 1 mps 757 mmHg 84%
03:00 +12°C° 0 mm 1 mps 757 mmHg 85%
04:00 +12°C° 0 mm 1 mps 757 mmHg 86%
05:00 +12°C° 0 mm 1 mps 757 mmHg 86%
06:00 +13°C° 0 mm 1 mps 758 mmHg 81%
07:00 +14°C° 0 mm 1 mps 758 mmHg 77%
08:00 +15°C° 0 mm 1 mps 758 mmHg 72%
09:00 +18°C° 0 mm 1 mps 758 mmHg 65%
10:00 +19°C° 0 mm 1 mps 758 mmHg 59%
11:00 +21°C° 0 mm 1 mps 758 mmHg 53%
12:00 +21°C° 0 mm 1 mps 758 mmHg 53%
13:00 +21°C° 0 mm 1 mps 757 mmHg 54%
14:00 +20°C° 0 mm 2 mps 757 mmHg 55%
15:00 +19°C° 0 mm 1 mps 757 mmHg 62%
16:00 +16°C° 0 mm 1 mps 757 mmHg 70%
17:00 +15°C° 0 mm 1 mps 757 mmHg 77%
18:00 +14°C° 0 mm 1 mps 757 mmHg 79%
19:00 +14°C° 0 mm 1 mps 758 mmHg 82%
20:00 +13°C° 0 mm 1 mps 758 mmHg 84%
21:00 +13°C° 0 mm 1 mps 758 mmHg 85%
22:00 +13°C° 0 mm 1 mps 757 mmHg 85%
23:00 +12°C° 0 mm 1 mps 757 mmHg 86%
Mostrar más

Necesitamos Su Consentimiento

Meteoprog y nuestros Proveedores de Servicios pueden almacenar y acceder a sus datos personales como cookies, identificadores de dispositivo u otras tecnologías similares de su dispositivo y procesar dichos datos para personalizar contenido y anuncios, además de ofrecer funciones de redes sociales y analizar el tráfico.

  • Almacenar y/o acceder a información en su dispositivo

    Se puede almacenar o acceder a cookies, identificadores de dispositivo u otra información de su dispositivo para los fines anteriormente indicados.

  • Anuncios y contenido personalizados, medición de anuncios y contenido, percepciones del público, y desarrollo de productos

    Los anuncios y el contenido pueden personalizarse en base a su perfil. Se pueden añadir más datos para personalizar mejor los anuncios y contenidos. Se puede medir el rendimiento de los anuncios y contenidos. Se puede obtener la percepción sobre el público que ha visto los anuncios y contenidos. Dichos datos pueden usarse para desarrollar o mejorar la experiencia del usuario, sistemas y software.

Al hacer clic en ‘Estoy De Acuerdo’ usted permitirá el uso de las cookies, identificadores de dispositivo, balizas web u otras tecnologías similares indicadas. Su configuración puede cambiarse desde el navegador de su dispositivo.

Para ciertos fines, los intereses legítimos pueden ser considerados por encima del consentimiento. Puede leer más sobre ello en nuestra Política de Privacidad y Cookies.